Location: Newark
(45.5167°N, 11.1667°E)
Time: 14:44:02
(UTC+00:00)

S-56A Canister/Altair - Visible Passes

Search period start: 05 December 2019 00:00
Search period end: 15 December 2019 00:00
Orbit: 633 x 2499 km, 38.9° (Epoch: 04 December)

Date Brightness Start Highest point End Pass type
(mag) Time Alt. Az. Time Alt. Az. Time Alt. Az.
05 Dec 10.7 16:58:35 10° W 17:08:02 29° SW 17:15:01 10° SSE visible
06 Dec 10.8 16:24:37 10° W 16:35:14 33° SW 16:42:57 10° SSE visible
07 Dec 10.9 15:50:42 10° W 16:02:20 38° SW 16:10:46 10° SSE visible
07 Dec 11.4 18:02:19 10° WSW 18:04:40 11° SW 18:06:50 10° SW visible
08 Dec 11.4 17:26:37 10° W 17:32:02 15° SW 17:36:40 10° SSW visible
09 Dec 11.4 16:51:54 10° W 16:59:20 18° SW 17:05:25 10° SSW visible
10 Dec 11.4 16:17:32 10° W 16:26:33 22° SW 16:33:46 10° S visible
14 Dec 11.9 05:46:16 10° SSE 05:53:46 19° SE 06:02:19 10° E visible
14 Dec 12.1 16:12:45 10° WSW 16:17:24 13° WSW 16:21:40 10° SW visible
